{"data":{"norad_id":69356,"intl_designator":"2026-123D","name":"STARLINK-37597","alt_names":[],"object_type":"PAYLOAD","status":"ACTIVE","operator":null,"country":"US","launch_date":"2026-06-04","launch_site_code":"AFETR","launch_vehicle":null,"mission":null,"orbit_class":"UNKNOWN","rcs_meters":null,"size_class":null,"mass_kg":null,"dimensions":null,"purposes":["comms"],"wikipedia_slug":null,"has_3d_model":false,"image_url":null,"decayed_at":null,"tle_current":{"epoch":"2026-09-20T02:48:18.832032Z","epoch_age_seconds":62115,"freshness":"FRESH","line1":"1 69356U 26123D   26263.11688463  .00008331  00000+0  25746-3 0  9990","line2":"2 69356  53.1588 143.3498 0001186  96.2661 263.8477 15.34396577 16812","mean_motion":15.34396577,"eccentricity":0.0001186,"inclination_deg":53.1588,"raan_deg":143.3498,"arg_perigee_deg":96.2661,"mean_anomaly_deg":263.8477,"bstar":0.00025746,"rev_number":1681,"period_min":93.84796744108,"perigee_km":461.90208924427,"apogee_km":463.5247389625,"semimajor_km":6840.8504141034,"source":"CELESTRAK","updated_at":"2026-09-20T09:00:44.164733Z"}}}